"Time","Value","Approval","myLocation"
"2023-05-06 00:00",14.595,"Working","OW319"
"2023-05-06 01:00",14.403,"Working","OW319"
"2023-05-06 02:00",14.306,"Working","OW319"
"2023-05-06 03:00",14.313,"Working","OW319"
"2023-05-06 04:00",14.407,"Working","OW319"
"2023-05-06 05:00",14.509,"Working","OW319"
"2023-05-06 06:00",14.62,"Working","OW319"
"2023-05-06 07:00",14.682,"Working","OW319"
"2023-05-06 08:00",14.684,"Working","OW319"
"2023-05-06 09:00",14.62,"Working","OW319"
"2023-05-06 10:00",14.517,"Working","OW319"
"2023-05-06 11:00",14.413,"Working","OW319"
"2023-05-06 12:00",14.339,"Working","OW319"
"2023-05-06 13:00",14.345,"Working","OW319"
"2023-05-06 14:00",14.455,"Working","OW319"
"2023-05-06 15:00",14.654,"Working","OW319"
"2023-05-06 16:00",14.917,"Working","OW319"
"2023-05-06 17:00",15.181,"Working","OW319"
"2023-05-06 18:00",15.416,"Working","OW319"
"2023-05-06 19:00",15.533,"Working","OW319"
"2023-05-06 20:00",15.547,"Working","OW319"
"2023-05-06 21:00",15.457,"Working","OW319"
"2023-05-06 22:00",15.301,"Working","OW319"
"2023-05-06 23:00",15.049,"Working","OW319"
"2023-05-07 00:00",14.776,"Working","OW319"
"2023-05-07 01:00",14.521,"Working","OW319"
"2023-05-07 02:00",14.358,"Working","OW319"
"2023-05-07 03:00",14.273,"Working","OW319"
"2023-05-07 04:00",14.298,"Working","OW319"
"2023-05-07 05:00",14.378,"Working","OW319"
"2023-05-07 06:00",14.475,"Working","OW319"
"2023-05-07 07:00",14.57,"Working","OW319"
"2023-05-07 08:00",14.607,"Working","OW319"
"2023-05-07 09:00",14.595,"Working","OW319"
"2023-05-07 10:00",14.533,"Working","OW319"
"2023-05-07 11:00",14.437,"Working","OW319"
"2023-05-07 12:00",14.36,"Working","OW319"
"2023-05-07 13:00",14.334,"Working","OW319"
"2023-05-07 14:00",14.396,"Working","OW319"
"2023-05-07 15:00",14.573,"Working","OW319"
"2023-05-07 16:00",14.841,"Working","OW319"
"2023-05-07 17:00",15.145,"Working","OW319"
"2023-05-07 18:00",15.461,"Working","OW319"
"2023-05-07 19:00",15.632,"Working","OW319"
"2023-05-07 20:00",15.713,"Working","OW319"
"2023-05-07 21:00",15.697,"Working","OW319"
"2023-05-07 22:00",15.559,"Working","OW319"
"2023-05-07 23:00",15.35,"Working","OW319"
"2023-05-08 00:00",15.067,"Working","OW319"
"2023-05-08 01:00",14.776,"Working","OW319"
"2023-05-08 02:00",14.521,"Working","OW319"
"2023-05-08 03:00",14.346,"Working","OW319"
"2023-05-08 04:00",14.277,"Working","OW319"
"2023-05-08 05:00",14.313,"Working","OW319"
"2023-05-08 06:00",14.387,"Working","OW319"
"2023-05-08 07:00",14.481,"Working","OW319"
"2023-05-08 08:00",14.559,"Working","OW319"
"2023-05-08 09:00",14.585,"Working","OW319"
"2023-05-08 10:00",14.572,"Working","OW319"
"2023-05-08 11:00",14.511,"Working","OW319"
"2023-05-08 12:00",14.437,"Working","OW319"
"2023-05-08 13:00",14.391,"Working","OW319"
"2023-05-08 14:00",14.408,"Working","OW319"
"2023-05-08 15:00",14.519,"Working","OW319"
"2023-05-08 16:00",14.722,"Working","OW319"
"2023-05-08 17:00",14.97,"Working","OW319"
"2023-05-08 18:00",15.238,"Working","OW319"
"2023-05-08 19:00",15.482,"Working","OW319"
"2023-05-08 20:00",15.63,"Working","OW319"
"2023-05-08 21:00",15.672,"Working","OW319"
"2023-05-08 22:00",15.612,"Working","OW319"
"2023-05-08 23:00",15.455,"Working","OW319"
"2023-05-09 00:00",15.225,"Working","OW319"
"2023-05-09 01:00",14.938,"Working","OW319"
"2023-05-09 02:00",14.657,"Working","OW319"
"2023-05-09 03:00",14.408,"Working","OW319"
"2023-05-09 04:00",14.254,"Working","OW319"
"2023-05-09 05:00",14.205,"Working","OW319"
"2023-05-09 06:00",14.242,"Working","OW319"
"2023-05-09 07:00",14.314,"Working","OW319"
"2023-05-09 08:00",14.403,"Working","OW319"
"2023-05-09 09:00",14.469,"Working","OW319"
"2023-05-09 10:00",14.502,"Working","OW319"
"2023-05-09 11:00",14.495,"Working","OW319"
"2023-05-09 12:00",14.448,"Working","OW319"
"2023-05-09 13:00",14.405,"Working","OW319"
"2023-05-09 14:00",14.388,"Working","OW319"
"2023-05-09 15:00",14.445,"Working","OW319"
"2023-05-09 16:00",14.584,"Working","OW319"
"2023-05-09 17:00",14.798,"Working","OW319"
"2023-05-09 18:00",15.048,"Working","OW319"
"2023-05-09 19:00",15.304,"Working","OW319"
"2023-05-09 20:00",15.52,"Working","OW319"
"2023-05-09 21:00",15.638,"Working","OW319"
"2023-05-09 22:00",15.651,"Working","OW319"
"2023-05-09 23:00",15.571,"Working","OW319"
"2023-05-10 00:00",15.402,"Working","OW319"
"2023-05-10 01:00",15.155,"Working","OW319"
"2023-05-10 02:00",14.883,"Working","OW319"
"2023-05-10 03:00",14.605,"Working","OW319"
"2023-05-10 04:00",14.373,"Working","OW319"
"2023-05-10 05:00",14.236,"Working","OW319"
"2023-05-10 06:00",14.196,"Working","OW319"
"2023-05-10 07:00",14.231,"Working","OW319"
"2023-05-10 08:00",14.302,"Working","OW319"
"2023-05-10 09:00",14.385,"Working","OW319"
"2023-05-10 10:00",14.451,"Working","OW319"
"2023-05-10 11:00",14.485,"Working","OW319"
"2023-05-10 12:00",14.488,"Working","OW319"
"2023-05-10 13:00",14.461,"Working","OW319"
"2023-05-10 14:00",14.434,"Working","OW319"
"2023-05-10 15:00",14.441,"Working","OW319"
"2023-05-10 16:00",14.508,"Working","OW319"
"2023-05-10 17:00",14.646,"Working","OW319"
"2023-05-10 18:00",14.856,"Working","OW319"
"2023-05-10 19:00",15.079,"Working","OW319"
"2023-05-10 20:00",15.306,"Working","OW319"
"2023-05-10 21:00",15.49,"Working","OW319"
"2023-05-10 22:00",15.584,"Working","OW319"
"2023-05-10 23:00",15.58,"Working","OW319"
"2023-05-11 00:00",15.487,"Working","OW319"
"2023-05-11 01:00",15.316,"Working","OW319"
"2023-05-11 02:00",15.083,"Working","OW319"
"2023-05-11 03:00",14.811,"Working","OW319"
"2023-05-11 04:00",14.551,"Working","OW319"
"2023-05-11 05:00",14.342,"Working","OW319"
"2023-05-11 06:00",14.209,"Working","OW319"
"2023-05-11 07:00",14.173,"Working","OW319"
"2023-05-11 08:00",14.215,"Working","OW319"
"2023-05-11 09:00",14.289,"Working","OW319"
"2023-05-11 10:00",14.387,"Working","OW319"
"2023-05-11 11:00",14.464,"Working","OW319"
"2023-05-11 12:00",14.521,"Working","OW319"
"2023-05-11 13:00",14.542,"Working","OW319"
"2023-05-11 14:00",14.529,"Working","OW319"
"2023-05-11 15:00",14.524,"Working","OW319"
"2023-05-11 16:00",14.538,"Working","OW319"
"2023-05-11 17:00",14.592,"Working","OW319"
"2023-05-11 18:00",14.713,"Working","OW319"
"2023-05-11 19:00",14.885,"Working","OW319"
"2023-05-11 20:00",15.085,"Working","OW319"
"2023-05-11 21:00",15.28,"Working","OW319"
"2023-05-11 22:00",15.434,"Working","OW319"
"2023-05-11 23:00",15.512,"Working","OW319"
"2023-05-12 00:00",15.505,"Working","OW319"
"2023-05-12 01:00",15.417,"Working","OW319"
"2023-05-12 02:00",15.253,"Working","OW319"
"2023-05-12 03:00",15.032,"Working","OW319"
"2023-05-12 04:00",14.78,"Working","OW319"
"2023-05-12 05:00",14.538,"Working","OW319"
"2023-05-12 06:00",14.335,"Working","OW319"
"2023-05-12 07:00",14.212,"Working","OW319"
"2023-05-12 08:00",14.184,"Working","OW319"
"2023-05-12 09:00",14.239,"Working","OW319"
"2023-05-12 10:00",14.332,"Working","OW319"
"2023-05-12 11:00",14.447,"Working","OW319"
"2023-05-12 12:00",14.547,"Working","OW319"
"2023-05-12 13:00",14.621,"Working","OW319"
"2023-05-12 14:00",14.663,"Working","OW319"
"2023-05-12 15:00",14.669,"Working","OW319"
"2023-05-12 16:00",14.659,"Working","OW319"
"2023-05-12 17:00",14.654,"Working","OW319"
"2023-05-12 18:00",14.68,"Working","OW319"
"2023-05-12 19:00",14.756,"Working","OW319"
"2023-05-12 20:00",14.891,"Working","OW319"
"2023-05-12 21:00",15.05,"Working","OW319"
"2023-05-12 22:00",15.207,"Working","OW319"
"2023-05-12 23:00",15.345,"Working","OW319"
"2023-05-13 00:00",15.427,"Working","OW319"
"2023-05-13 01:00",15.429,"Working","OW319"
"2023-05-13 02:00",15.358,"Working","OW319"
"2023-05-13 03:00",15.206,"Working","OW319"
"2023-05-13 04:00",15,"Working","OW319"
"2023-05-13 05:00",14.766,"Working","OW319"
"2023-05-13 06:00",14.542,"Working","OW319"
"2023-05-13 07:00",14.358,"Working","OW319"
"2023-05-13 08:00",14.246,"Working","OW319"
"2023-05-13 09:00",14.231,"Working","OW319"
"2023-05-13 10:00",14.303,"Working","OW319"
"2023-05-13 11:00",14.422,"Working","OW319"
"2023-05-13 12:00",14.559,"Working","OW319"
"2023-05-13 13:00",14.685,"Working","OW319"
"2023-05-13 14:00",14.78,"Working","OW319"
"2023-05-13 15:00",14.829,"Working","OW319"
"2023-05-13 16:00",14.838,"Working","OW319"
"2023-05-13 17:00",14.807,"Working","OW319"
"2023-05-13 18:00",14.772,"Working","OW319"
"2023-05-13 19:00",14.761,"Working","OW319"
"2023-05-13 20:00",14.785,"Working","OW319"
"2023-05-13 21:00",14.86,"Working","OW319"
"2023-05-13 22:00",14.977,"Working","OW319"
"2023-05-13 23:00",15.109,"Working","OW319"
"2023-05-14 00:00",15.233,"Working","OW319"
"2023-05-14 01:00",15.311,"Working","OW319"
"2023-05-14 02:00",15.33,"Working","OW319"
"2023-05-14 03:00",15.27,"Working","OW319"
"2023-05-14 04:00",15.128,"Working","OW319"
"2023-05-14 05:00",14.938,"Working","OW319"
"2023-05-14 06:00",14.718,"Working","OW319"
"2023-05-14 07:00",14.502,"Working","OW319"
"2023-05-14 08:00",14.339,"Working","OW319"
"2023-05-14 09:00",14.247,"Working","OW319"
"2023-05-14 10:00",14.253,"Working","OW319"
"2023-05-14 11:00",14.351,"Working","OW319"
"2023-05-14 12:00",14.497,"Working","OW319"
"2023-05-14 13:00",14.666,"Working","OW319"
"2023-05-14 14:00",14.811,"Working","OW319"
"2023-05-14 15:00",14.91,"Working","OW319"
"2023-05-14 16:00",14.955,"Working","OW319"
"2023-05-14 17:00",14.938,"Working","OW319"
"2023-05-14 18:00",14.876,"Working","OW319"
"2023-05-14 19:00",14.802,"Working","OW319"
"2023-05-14 20:00",14.741,"Working","OW319"
"2023-05-14 21:00",14.724,"Working","OW319"
"2023-05-14 22:00",14.746,"Working","OW319"
"2023-05-14 23:00",14.826,"Working","OW319"
"2023-05-15 00:00",14.936,"Working","OW319"
"2023-05-15 01:00",15.048,"Working","OW319"
"2023-05-15 02:00",15.151,"Working","OW319"
"2023-05-15 03:00",15.171,"Working","OW319"
"2023-05-15 04:00",15.119,"Working","OW319"
"2023-05-15 05:00",15.011,"Working","OW319"
"2023-05-15 06:00",14.839,"Working","OW319"
"2023-05-15 07:00",14.653,"Working","OW319"
"2023-05-15 08:00",14.46,"Working","OW319"
"2023-05-15 09:00",14.324,"Working","OW319"
"2023-05-15 10:00",14.272,"Working","OW319"
"2023-05-15 11:00",14.32,"Working","OW319"
"2023-05-15 12:00",14.455,"Working","OW319"
"2023-05-15 13:00",14.643,"Working","OW319"
"2023-05-15 14:00",14.844,"Working","OW319"
"2023-05-15 15:00",15.013,"Working","OW319"
"2023-05-15 16:00",15.125,"Working","OW319"
"2023-05-15 17:00",15.148,"Working","OW319"
"2023-05-15 18:00",15.1,"Working","OW319"
"2023-05-15 19:00",15.008,"Working","OW319"
"2023-05-15 20:00",14.878,"Working","OW319"
"2023-05-15 21:00",14.752,"Working","OW319"
"2023-05-15 22:00",14.675,"Working","OW319"
"2023-05-15 23:00",14.659,"Working","OW319"
"2023-05-16 00:00",14.712,"Working","OW319"
"2023-05-16 01:00",14.806,"Working","OW319"
"2023-05-16 02:00",14.922,"Working","OW319"
"2023-05-16 03:00",15.003,"Working","OW319"
"2023-05-16 04:00",15.027,"Working","OW319"
"2023-05-16 05:00",15.01,"Working","OW319"
"2023-05-16 06:00",14.905,"Working","OW319"
"2023-05-16 07:00",14.753,"Working","OW319"
"2023-05-16 08:00",14.57,"Working","OW319"
"2023-05-16 09:00",14.407,"Working","OW319"
"2023-05-16 10:00",14.321,"Working","OW319"
"2023-05-16 11:00",14.315,"Working","OW319"
"2023-05-16 12:00",14.428,"Working","OW319"
"2023-05-16 13:00",14.618,"Working","OW319"
"2023-05-16 14:00",14.848,"Working","OW319"
"2023-05-16 15:00",15.069,"Working","OW319"
"2023-05-16 16:00",15.227,"Working","OW319"
"2023-05-16 17:00",15.307,"Working","OW319"
"2023-05-16 18:00",15.302,"Working","OW319"
"2023-05-16 19:00",15.21,"Working","OW319"
"2023-05-16 20:00",15.069,"Working","OW319"
"2023-05-16 21:00",14.902,"Working","OW319"
"2023-05-16 22:00",14.739,"Working","OW319"
"2023-05-16 23:00",14.61,"Working","OW319"
"2023-05-17 00:00",14.562,"Working","OW319"
"2023-05-17 01:00",14.616,"Working","OW319"
"2023-05-17 02:00",14.703,"Working","OW319"
"2023-05-17 03:00",14.823,"Working","OW319"
"2023-05-17 04:00",14.936,"Working","OW319"
"2023-05-17 05:00",14.957,"Working","OW319"
"2023-05-17 06:00",14.922,"Working","OW319"
"2023-05-17 07:00",14.827,"Working","OW319"
"2023-05-17 08:00",14.665,"Working","OW319"
"2023-05-17 09:00",14.511,"Working","OW319"
"2023-05-17 10:00",14.384,"Working","OW319"
"2023-05-17 11:00",14.351,"Working","OW319"
"2023-05-17 12:00",14.4,"Working","OW319"
"2023-05-17 13:00",14.566,"Working","OW319"
"2023-05-17 14:00",14.795,"Working","OW319"
"2023-05-17 15:00",15.041,"Working","OW319"
"2023-05-17 16:00",15.28,"Working","OW319"
"2023-05-17 17:00",15.408,"Working","OW319"
"2023-05-17 18:00",15.459,"Working","OW319"
"2023-05-17 19:00",15.408,"Working","OW319"
"2023-05-17 20:00",15.274,"Working","OW319"
"2023-05-17 21:00",15.079,"Working","OW319"
"2023-05-17 22:00",14.848,"Working","OW319"
"2023-05-17 23:00",14.649,"Working","OW319"
"2023-05-18 00:00",14.502,"Working","OW319"
"2023-05-18 01:00",14.449,"Working","OW319"
"2023-05-18 02:00",14.5,"Working","OW319"
"2023-05-18 03:00",14.596,"Working","OW319"
"2023-05-18 04:00",14.692,"Working","OW319"
"2023-05-18 05:00",14.781,"Working","OW319"
"2023-05-18 06:00",14.808,"Working","OW319"
"2023-05-18 07:00",14.769,"Working","OW319"
"2023-05-18 08:00",14.675,"Working","OW319"
"2023-05-18 09:00",14.542,"Working","OW319"
"2023-05-18 10:00",14.416,"Working","OW319"
"2023-05-18 11:00",14.345,"Working","OW319"
"2023-05-18 12:00",14.364,"Working","OW319"
"2023-05-18 13:00",14.485,"Working","OW319"
"2023-05-18 14:00",14.704,"Working","OW319"
"2023-05-18 15:00",14.958,"Working","OW319"
"2023-05-18 16:00",15.258,"Working","OW319"
"2023-05-18 17:00",15.453,"Working","OW319"
"2023-05-18 18:00",15.562,"Working","OW319"
"2023-05-18 19:00",15.545,"Working","OW319"
"2023-05-18 20:00",15.45,"Working","OW319"
"2023-05-18 21:00",15.31,"Working","OW319"
"2023-05-18 22:00",15.069,"Working","OW319"
"2023-05-18 23:00",14.813,"Working","OW319"
"2023-05-19 00:00",14.579,"Working","OW319"
"2023-05-19 01:00",14.431,"Working","OW319"
"2023-05-19 02:00",14.389,"Working","OW319"
"2023-05-19 03:00",14.439,"Working","OW319"
"2023-05-19 04:00",14.526,"Working","OW319"
"2023-05-19 05:00",14.633,"Working","OW319"
"2023-05-19 06:00",14.705,"Working","OW319"
"2023-05-19 07:00",14.733,"Working","OW319"
"2023-05-19 08:00",14.705,"Working","OW319"
"2023-05-19 09:00",14.614,"Working","OW319"
"2023-05-19 10:00",14.516,"Working","OW319"
"2023-05-19 11:00",14.442,"Working","OW319"
"2023-05-19 12:00",14.43,"Working","OW319"
"2023-05-19 13:00",14.507,"Working","OW319"
"2023-05-19 14:00",14.685,"Working","OW319"
"2023-05-19 15:00",14.938,"Working","OW319"
"2023-05-19 16:00",15.208,"Working","OW319"
"2023-05-19 17:00",15.458,"Working","OW319"
"2023-05-19 18:00",15.628,"Working","OW319"
"2023-05-19 19:00",15.677,"Working","OW319"
"2023-05-19 20:00",15.626,"Working","OW319"
"2023-05-19 21:00",15.486,"Working","OW319"
"2023-05-19 22:00",15.266,"Working","OW319"
"2023-05-19 23:00",14.988,"Working","OW319"
"2023-05-20 00:00",14.711,"Working","OW319"
"2023-05-20 01:00",14.505,"Working","OW319"
"2023-05-20 02:00",14.368,"Working","OW319"
"2023-05-20 03:00",14.328,"Working","OW319"
"2023-05-20 04:00",14.45,"Working","OW319"
"2023-05-20 05:00",14.552,"Working","OW319"
"2023-05-20 06:00",14.651,"Working","OW319"
"2023-05-20 07:00",14.712,"Working","OW319"
"2023-05-20 08:00",14.729,"Working","OW319"
"2023-05-20 09:00",14.695,"Working","OW319"
"2023-05-20 10:00",14.625,"Working","OW319"
"2023-05-20 11:00",14.558,"Working","OW319"
"2023-05-20 12:00",14.52,"Working","OW319"
"2023-05-20 13:00",14.566,"Working","OW319"
"2023-05-20 14:00",14.689,"Working","OW319"
"2023-05-20 15:00",14.91,"Working","OW319"
"2023-05-20 16:00",15.183,"Working","OW319"
"2023-05-20 17:00",15.448,"Working","OW319"
"2023-05-20 18:00",15.655,"Working","OW319"
"2023-05-20 19:00",15.769,"Working","OW319"
"2023-05-20 20:00",15.779,"Working","OW319"
"2023-05-20 21:00",15.696,"Working","OW319"
"2023-05-20 22:00",15.525,"Working","OW319"
"2023-05-20 23:00",15.26,"Working","OW319"
"2023-05-21 00:00",14.967,"Working","OW319"
"2023-05-21 01:00",14.706,"Working","OW319"
"2023-05-21 02:00",14.497,"Working","OW319"
"2023-05-21 03:00",14.387,"Working","OW319"
"2023-05-21 04:00",14.501,"Working","OW319"
"2023-05-21 05:00",14.554,"Working","OW319"
"2023-05-21 06:00",14.632,"Working","OW319"
"2023-05-21 07:00",14.719,"Working","OW319"
"2023-05-21 08:00",14.777,"Working","OW319"
"2023-05-21 09:00",14.794,"Working","OW319"
"2023-05-21 10:00",14.761,"Working","OW319"
"2023-05-21 11:00",14.712,"Working","OW319"
"2023-05-21 12:00",14.681,"Working","OW319"
"2023-05-21 14:00",14.767,"Working","OW319"
"2023-05-21 15:00",14.944,"Working","OW319"
"2023-05-21 16:00",15.181,"Working","OW319"
"2023-05-21 17:00",15.447,"Working","OW319"
"2023-05-21 18:00",15.696,"Working","OW319"
"2023-05-21 19:00",15.866,"Working","OW319"
"2023-05-21 20:00",15.962,"Working","OW319"
"2023-05-21 21:00",15.917,"Working","OW319"
"2023-05-21 22:00",15.804,"Working","OW319"
"2023-05-21 23:00",15.594,"Working","OW319"
"2023-05-22 00:00",15.33,"Working","OW319"
"2023-05-22 01:00",15.055,"Working","OW319"
"2023-05-22 02:00",14.794,"Working","OW319"
"2023-05-22 03:00",14.611,"Working","OW319"
"2023-05-22 04:00",14.541,"Working","OW319"
"2023-05-22 05:00",14.568,"Working","OW319"
"2023-05-22 06:00",14.641,"Working","OW319"
"2023-05-22 07:00",14.736,"Working","OW319"
"2023-05-22 08:00",14.82,"Working","OW319"
"2023-05-22 09:00",14.874,"Working","OW319"
"2023-05-22 10:00",14.894,"Working","OW319"
"2023-05-22 11:00",14.865,"Working","OW319"
"2023-05-22 12:00",14.83,"Working","OW319"
"2023-05-22 13:00",14.828,"Working","OW319"
"2023-05-22 14:00",14.846,"Working","OW319"
"2023-05-22 15:00",14.957,"Working","OW319"
"2023-05-22 16:00",15.134,"Working","OW319"
"2023-05-22 17:00",15.37,"Working","OW319"
"2023-05-22 18:00",15.596,"Working","OW319"
"2023-05-22 19:00",15.804,"Working","OW319"
"2023-05-22 20:00",15.934,"Working","OW319"
"2023-05-22 21:00",15.96,"Working","OW319"
"2023-05-22 22:00",15.873,"Working","OW319"
"2023-05-22 23:00",15.739,"Working","OW319"
"2023-05-23 00:00",15.498,"Working","OW319"
"2023-05-23 01:00",15.222,"Working","OW319"
"2023-05-23 02:00",14.954,"Working","OW319"
"2023-05-23 03:00",14.737,"Working","OW319"
"2023-05-23 04:00",14.592,"Working","OW319"
"2023-05-23 05:00",14.541,"Working","OW319"
"2023-05-23 06:00",14.575,"Working","OW319"
"2023-05-23 07:00",14.658,"Working","OW319"
"2023-05-23 08:00",14.747,"Working","OW319"
"2023-05-23 09:00",14.824,"Working","OW319"
"2023-05-23 10:00",14.873,"Working","OW319"
"2023-05-23 11:00",14.882,"Working","OW319"
"2023-05-23 12:00",14.86,"Working","OW319"
"2023-05-23 13:00",14.844,"Working","OW319"
"2023-05-23 14:00",14.858,"Working","OW319"
"2023-05-23 15:00",14.912,"Working","OW319"
"2023-05-23 16:00",15.04,"Working","OW319"
"2023-05-23 17:00",15.213,"Working","OW319"
"2023-05-23 18:00",15.428,"Working","OW319"
"2023-05-23 19:00",15.626,"Working","OW319"
"2023-05-23 20:00",15.806,"Working","OW319"
"2023-05-23 21:00",15.894,"Working","OW319"
"2023-05-23 22:00",15.869,"Working","OW319"
"2023-05-23 23:00",15.789,"Working","OW319"
"2023-05-24 00:00",15.606,"Working","OW319"
"2023-05-24 01:00",15.402,"Working","OW319"
"2023-05-24 02:00",15.144,"Working","OW319"
"2023-05-24 03:00",14.896,"Working","OW319"
"2023-05-24 04:00",14.703,"Working","OW319"
"2023-05-24 05:00",14.601,"Working","OW319"
"2023-05-24 06:00",14.587,"Working","OW319"
"2023-05-24 07:00",14.631,"Working","OW319"
"2023-05-24 08:00",14.696,"Working","OW319"
"2023-05-24 09:00",14.784,"Working","OW319"
"2023-05-24 10:00",14.854,"Working","OW319"
"2023-05-24 11:00",14.891,"Working","OW319"
"2023-05-24 12:00",14.899,"Working","OW319"
"2023-05-24 13:00",14.887,"Working","OW319"
"2023-05-24 14:00",14.881,"Working","OW319"
"2023-05-24 15:00",14.911,"Working","OW319"
"2023-05-24 16:00",14.981,"Working","OW319"
"2023-05-24 17:00",15.106,"Working","OW319"
"2023-05-24 18:00",15.282,"Working","OW319"
"2023-05-24 19:00",15.466,"Working","OW319"
"2023-05-24 20:00",15.63,"Working","OW319"
"2023-05-24 21:00",15.758,"Working","OW319"
"2023-05-24 22:00",15.961,"Working","OW319"
"2023-05-24 23:00",15.93,"Working","OW319"
"2023-05-25 01:00",15.644,"Working","OW319"
"2023-05-25 02:00",15.415,"Working","OW319"
"2023-05-25 03:00",15.172,"Working","OW319"
"2023-05-25 04:00",14.959,"Working","OW319"
"2023-05-25 05:00",14.79,"Working","OW319"
"2023-05-25 06:00",14.691,"Working","OW319"
"2023-05-25 07:00",14.691,"Working","OW319"
"2023-05-25 08:00",14.732,"Working","OW319"
"2023-05-25 09:00",14.796,"Working","OW319"
"2023-05-25 10:00",14.874,"Working","OW319"
"2023-05-25 11:00",14.941,"Working","OW319"
"2023-05-25 12:00",14.982,"Working","OW319"
"2023-05-25 13:00",14.992,"Working","OW319"
"2023-05-25 14:00",14.995,"Working","OW319"
"2023-05-25 15:00",15.019,"Working","OW319"
"2023-05-25 16:00",15.049,"Working","OW319"
"2023-05-25 17:00",15.116,"Working","OW319"
"2023-05-25 18:00",15.223,"Working","OW319"
"2023-05-25 19:00",15.365,"Working","OW319"
"2023-05-25 20:00",15.519,"Working","OW319"
"2023-05-25 21:00",15.648,"Working","OW319"
"2023-05-25 22:00",15.732,"Working","OW319"
"2023-05-25 23:00",15.753,"Working","OW319"
"2023-05-26 00:00",15.69,"Working","OW319"
"2023-05-26 01:00",15.575,"Working","OW319"
"2023-05-26 02:00",15.399,"Working","OW319"
"2023-05-26 03:00",15.199,"Working","OW319"
"2023-05-26 04:00",14.986,"Working","OW319"
"2023-05-26 05:00",14.806,"Working","OW319"
"2023-05-26 06:00",14.67,"Working","OW319"
"2023-05-26 07:00",14.611,"Working","OW319"
"2023-05-26 08:00",14.626,"Working","OW319"
"2023-05-26 09:00",14.688,"Working","OW319"
"2023-05-26 10:00",14.775,"Working","OW319"
"2023-05-26 11:00",14.863,"Working","OW319"
"2023-05-26 12:00",14.937,"Working","OW319"
"2023-05-26 13:00",14.986,"Working","OW319"
"2023-05-26 14:00",15.006,"Working","OW319"
"2023-05-26 15:00",15.022,"Working","OW319"
"2023-05-26 16:00",15.021,"Working","OW319"
"2023-05-26 17:00",15.038,"Working","OW319"
"2023-05-26 18:00",15.116,"Working","OW319"
"2023-05-26 19:00",15.234,"Working","OW319"
"2023-05-26 20:00",15.337,"Working","OW319"
"2023-05-26 21:00",15.466,"Working","OW319"
"2023-05-26 22:00",15.572,"Working","OW319"
"2023-05-26 23:00",15.622,"Working","OW319"
"2023-05-27 00:00",15.635,"Working","OW319"
"2023-05-27 01:00",15.557,"Working","OW319"
"2023-05-27 02:00",15.431,"Working","OW319"
"2023-05-27 03:00",15.261,"Working","OW319"
"2023-05-27 04:00",15.064,"Working","OW319"
"2023-05-27 05:00",14.881,"Working","OW319"
"2023-05-27 06:00",14.737,"Working","OW319"
"2023-05-27 07:00",14.63,"Working","OW319"
"2023-05-27 08:00",14.598,"Working","OW319"
"2023-05-27 09:00",14.636,"Working","OW319"
"2023-05-27 10:00",14.722,"Working","OW319"
"2023-05-27 11:00",14.822,"Working","OW319"
"2023-05-27 12:00",14.924,"Working","OW319"
"2023-05-27 13:00",15.007,"Working","OW319"
"2023-05-27 14:00",15.067,"Working","OW319"
"2023-05-27 15:00",15.104,"Working","OW319"
"2023-05-27 16:00",15.104,"Working","OW319"
"2023-05-27 17:00",15.127,"Working","OW319"
"2023-05-27 18:00",15.13,"Working","OW319"
"2023-05-27 19:00",15.147,"Working","OW319"
"2023-05-27 20:00",15.214,"Working","OW319"
"2023-05-27 21:00",15.287,"Working","OW319"
"2023-05-27 22:00",15.373,"Working","OW319"
"2023-05-27 23:00",15.441,"Working","OW319"
"2023-05-28 00:00",15.49,"Working","OW319"
"2023-05-28 01:00",15.474,"Working","OW319"
"2023-05-28 02:00",15.406,"Working","OW319"
"2023-05-28 03:00",15.288,"Working","OW319"
"2023-05-28 04:00",15.14,"Working","OW319"
"2023-05-28 05:00",14.967,"Working","OW319"
"2023-05-28 06:00",14.812,"Working","OW319"